{"data":{"norad_id":66937,"epoch":"2026-09-20T11:27:30.602592Z","epoch_age_seconds":86425,"freshness":"FRESH","line1":"1 66937U 25286N   26263.47743753  .00026967  00000+0  80640-3 0  9993","line2":"2 66937  53.1570 169.8548 0001314  86.2820 273.8333 15.34399684 45291","mean_motion":15.34399684,"eccentricity":0.0001314,"inclination_deg":53.157,"raan_deg":169.8548,"arg_perigee_deg":86.282,"mean_anomaly_deg":273.8333,"bstar":0.0008064,"rev_number":4529,"period_min":93.847777408692,"perigee_km":461.80529289488,"apogee_km":463.60306595684,"semimajor_km":6840.8411794259,"source":"CELESTRAK","updated_at":"2026-09-21T09:00:36.058177Z"}}